Regional Weather Roundup
Issued by NWS Upton, NY

Home | Current Version | Previous Version | Text Only | Print | Product List | Glossary On
Versions: 1 2 3 4 5 6 7 8 9 10 11 12 13 14 15 16 17 18 19 20 21 22 23 24 25 26 27 28
000
ASUS41 KOKX 200005
RWROKX
REGIONAL WEATHER ROUNDUP
NATIONAL WEATHER SERVICE NEW YORK NY
800 PM EDT SAT APR 19 2014

NOTE: "FAIR" INDICATES FEW OR NO CLOUDS BELOW 12,000 FEET WITH NO
SIGNIFICANT WEATHER AND/OR OBSTRUCTIONS TO VISIBILITY.

NYZ071-072-176-178-NJZ106-104-200100-
NEW YORK CITY METRO AREA


CITY           SKY/WX    TMP DP  RH WIND       PRES   REMARKS
CENTRAL PARK   MOCLDY    62  20  19 NE3       30.29R
LAGUARDIA APRT MOCLDY    59  25  27 E7        30.26R
KENNEDY INTL   MOCLDY    53  34  48 S3        30.28R
NEWARK/LIBERTY MOCLDY    63  21  20 NE7       30.26R
TETERBORO      MOCLDY    63  20  19 NE5       30.25R
$$

NYZ177-179-078>081-200100-
LONG ISLAND NEW YORK

CITY           SKY/WX    TMP DP  RH WIND       PRES   REMARKS
FARMINGDALE    MOCLDY    58  27  30 N5        30.27R
ISLIP          MOCLDY    58  27  30 N5        30.25R
SHIRLEY        MOCLDY    55  29  36 N6        30.27R
WESTHAMPTON    MOCLDY    52  31  44 NW7       30.27R
MONTAUK POINT    N/A     50  40  68 CALM      30.27R
$$

NYZ052-065-067-200100-
HUDSON VALLEY

CITY           SKY/WX    TMP DP  RH WIND       PRES   REMARKS
WHITE PLAINS   MOCLDY    57  20  23 N8        30.27R
NEWBURGH       CLEAR     54  25  32 NE16      30.30R
MONTGOMERY     PTCLDY    51  27  39 NE10      30.29R
POUGHKEEPSIE   PTCLDY    54  22  28 E6        30.30R
ALBANY         MOCLDY    51  24  34 NE9       30.35R
$$

NJZ001-105-106-008-010-013-015-019>022-104-200100-
NEW JERSEY

CITY           SKY/WX    TMP DP  RH WIND       PRES   REMARKS
NEWARK/LIBERTY MOCLDY    63  21  20 NE7       30.26R
TETERBORO      MOCLDY    63  20  19 NE5       30.25R
CALDWELL       MOCLDY    61  19  19 CALM      30.27R
MORRISTOWN     CLEAR     43  19  39 N9        30.26S
SOMERVILLE     MOCLDY    61  19  19 N6        30.25R
LINDEN         FAIR      62  30  29 S6        30.28R
SUSSEX         PTCLDY    59  20  22 N5        30.29R
ANDOVER          N/A     55  24  30 CALM      30.28R
TRENTON        MOCLDY    60  22  23 N5        30.26R
MILLVILLE      CLOUDY    52  35  52 SE6       30.28R
ATLANTIC CITY  CLOUDY    52  37  56 S6        30.27R
WRIGHTSTOWN    MOCLDY    55  32  41 SE6       30.24R
TOMS RIVER     MOCLDY    52  36  54 CALM      30.28R
BELMAR         MOCLDY    54  30  40 S5        30.27R
$$

PAZ047>061-062-071-200100-
EASTERN PENNSYLVANIA

CITY           SKY/WX    TMP DP  RH WIND       PRES   REMARKS
PHILADELPHIA   CLOUDY    63  20  19 N8        30.26S
ALLENTOWN      MOCLDY    57  26  30 N6        30.28R
SCRANTON       MOCLDY    52  23  32 N7        30.30S
$$

CTZ002-004>006-009-010-012-RIZ004-006-007-MAZ004-011-015-200100-
SOUTHERN NEW ENGLAND
 IN CT

CITY           SKY/WX    TMP DP  RH WIND       PRES   REMARKS
BRADLEY INTL   PTCLDY    55  25  31 N12       30.28R
HARTFORD       PTCLDY    57  27  31 N15       30.28R
DANBURY        PTCLDY    54  24  31 N7        30.30R
WTRBRY/OXFORD  PTCLDY    54  27  35 N12       30.30R
BRIDGEPORT     MOCLDY    60  26  27 N12       30.27R
MERIDEN        PTCLDY    59  25  27 N8        30.27R
NEW HAVEN      PTCLDY    61  26  26 N6        30.27R
CHESTER        FAIR      57  28  33 N6        30.28R
GROTON         PTCLDY    59  25  27 N7        30.26R
WILLIMANTIC    PTCLDY    56  23  27 N5        30.29R

 IN RI

CITY           SKY/WX    TMP DP  RH WIND       PRES   REMARKS
PROVIDENCE     MOCLDY    58  27  30 N14       30.28R
BLOCK ISLAND   MOCLDY    50  34  53 SE3       30.27R
WESTERLY       PTCLDY    53  32  44 CALM      30.27R

 IN MA

CITY           SKY/WX    TMP DP  RH WIND       PRES   REMARKS
BOSTON         MOCLDY    54  26  34 N16G25    30.30R
WORCESTER      CLEAR     51  26  37 N10       30.30R
WESTFIELD      CLEAR     53  27  36 N9        30.29R
PROVINCETOWN   CLEAR     46  36  66 MISG      30.30R
NANTUCKET      PTCLDY    46  38  73 CALM      30.28R
$$

ANZ330-335-338-340-345-350-353-355-200100-
COASTAL MARINE OBSERVATIONS


STATION/POSITION TIME  SKY/WX   TEMP    WIND        PRES    VSBY  WAVE
                                AIR SEA DIR/SP/G                  HT/PER
                 (UTC)          (F)     (DEG/KT/KT) (MB)    (MI)  (FT/S)
NY HARB ENTRANCE 0000            48 45   60/  4/  6 1024.9
4S FIRE IS       2300               47                N/A           3/10
23SW MTP         0000            46 44  200/  4/  6 1024.3          3/ 9
HUDSON CANYON    2300            46 46  330/  4/  4 1024.5          4/10
EXECUTION ROCKS  0000            53 32   40/  8/  8   N/A
WESTERN LI SOUND 0000            55      20/ 10/ 12   N/A           0
CENTRAL LI SOUND 2300            53 44  330/  8/ 10   N/A           1/ 2
EASTERN LI SOUND NOT AVBL
ROBBINS REEF     0000            56     170/ 10/ 11   N/A
$$


>>>>>>>>>>>>>>>>>>>>>>>>>>>> KEY <<<<<<<<<<<<<<<<<<<<<<<<<<<
>                                                          <
>     SKY/WX - SKY CONDITION/PRESENT WEATHER               <
>     TMP    - TEMPERATURE IN FAHRENHEIT                   <
>     DP     - DEWPOINT IN FAHRENHEIT                      <
>     RH     - RELATIVE HUMIDITY IN PERCENT                <
>     WIND   - DIRECTION AND SPEED IN MPH                  <
>     PRES   - MEAN SEA LEVEL PRESSURE IN INCHES OF HG     <
>     WCI    - WIND CHILL INDEX                            <
>     VSB    - VISIBILITY IN MILES                         <
>     HX     - HEAT INDEX                                  <
>     TC     - TEMPERATURE IN CELSIUS                      <
>     VRB    - VARIABLE WIND DIRECTION                     <
>                                                          <
>>>>>>>>>>>>>>>>>>>>>>>>>>>> KEY <<<<<<<<<<<<<<<<<<<<<<<<<<<





USA.gov is the U.S. government's official web portal to all federal, state and local government web resources and services.